This demonstration page uses our WeatherBlox Daily Observations layout. Learn more.

Left ArrowRight Arrow

38.80484, -77.04692

Hourly Observations for February 28, 2016

Temp ( °F °C ) Dew Point ( °F °C ) Humidity (%) Winds ( mph kmh ) Pressure ( in mb ) Visibility ( mi km ) Precip ( " mm )
12:52 am 00:52 Clear 36 2.2 27 -2.8 70 70 SSW 6 9 30.09 1019 10 16 0.00 0.00
1:52 am 01:52 Clear 34 1.1 27 -2.8 76 76 SSW 7 11 30.07 1018 10 16 0.00 0.00
2:52 am 02:52 Mostly Clear 34 1.1 26 -3.3 73 73 SSW 5 7 30.07 1018 10 16 0.00 0.00
3:52 am 03:52 Clear 34 1.1 26 -3.3 73 73 SSW 7 11 30.07 1018 10 16 0.00 0.00
4:52 am 04:52 Clear 33 0.6 26 -3.3 75 75 SW 6 9 30.07 1018 10 16 0.00 0.00
5:52 am 05:52 Clear 34 1.1 26 -3.3 73 73 SSW 7 11 30.08 1019 10 16 0.00 0.00
6:52 am 06:52 Mostly Sunny 33 0.6 26 -3.3 75 75 SSW 7 11 30.07 1018 10 16 0.00 0.00
7:52 am 07:52 Mostly Sunny 38 3.3 28 -2.2 68 68 SSW 7 11 30.08 1019 10 16 0.00 0.00
8:52 am 08:52 Partly Cloudy 42 5.6 29 -1.7 60 60 S 8 13 30.08 1019 10 16 0.00 0.00
9:52 am 09:52 Partly Cloudy 47 8.3 31 -0.6 54 54 S 10 17 30.07 1018 10 16 0.00 0.00
10:52 am 10:52 Mostly Sunny 51 10.6 33 0.6 50 50 SSE 12 19 30.05 1018 10 16 0.00 0.00
11:52 am 11:52 Mostly Sunny 56 13.3 32 0 40 40 S 8 13 30.03 1017 10 16 0.00 0.00
12:52 pm 12:52 Mostly Sunny 59 15 32 0 36 36 S 13 20 29.98 1015 10 16 0.00 0.00
1:52 pm 13:52 Mostly Sunny 62 16.7 33 0.6 34 34 S 14 22 29.95 1014 10 16 0.00 0.00
2:52 pm 14:52 Mostly Sunny 65 18.3 32 0 29 29 S 13 20 29.92 1013 10 16 0.00 0.00
3:52 pm 15:52 Sunny 63 17.2 34 1.1 34 34 S 13 20 29.90 1012 10 16 0.00 0.00
4:52 pm 16:52 Sunny 62 16.7 34 1.1 35 35 SSW 18 30 29.87 1012 10 16 0.00 0.00
5:52 pm 17:52 Sunny 60 15.6 34 1.1 38 38 S 14 22 29.86 1011 10 16 0.00 0.00
6:52 pm 18:52 Clear 55 12.8 36 2.2 49 49 S 14 22 29.85 1011 10 16 0.00 0.00
7:52 pm 19:52 Clear 56 13.3 34 1.1 44 44 S 14 22 29.84 1011 10 16 0.00 0.00
8:52 pm 20:52 Clear 57 13.9 32 0 39 39 SSW 15 24 29.84 1011 10 16 0.00 0.00
9:52 pm 21:52 Clear 57 13.9 32 0 39 39 S 17 28 29.83 1010 10 16 0.00 0.00
10:52 pm 22:52 Clear 56 13.3 31 -0.6 39 39 SSW 16 26 29.81 1009 10 16 0.00 0.00
11:52 pm 23:52 Clear 55 12.8 31 -0.6 40 40 SSW 17 28 29.79 1009 10 16 0.00 0.00

Powered by AerisWeather